Regional Weather Roundup
Issued by NWS

Home | Current Version | Previous Version | Graphics & Text | Print | Product List | Glossary On
Versions: 1 2 3 4 5 6 7 8 9 10 11 12 13 14 15 16 17 18 19 20 21 22 23 24 25 26 27 28 29 30 31 32 33 34 35 36 37 38 39 40 41 42 43 44 45 46 47 48 49 50
000
ASUS43 KDMX 091807
RWRIA

WEATHER ROUNDUP FOR IOWA
NATIONAL WEATHER SERVICE DES MOINES IA
100 PM CDT WED JUL 09 2014

NOTE: "FAIR" INDICATES FEW OR NO CLOUDS BELOW 12,000 FEET WITH NO
SIGNIFICANT WEATHER AND/OR OBSTRUCTIONS TO VISIBILITY.

* - THESE STATIONS ARE NOT NWS STATIONS...THUS NOT UNDER NWS
QUALITY CONTROL.  THEY ALSO DO NOT REPORT WEATHER SUCH
AS PRECIPITATION OR FOG.

IAZ001>003-012>014-020>022-031>034-043>046-091900-
   NORTHWEST IOWA

CITY           SKY/WX    TMP DP  RH WIND       PRES   REMARKS
CARROLL *      MOSUNNY   75  57  53 W7        30.07S
CHEROKEE *     PTSUNNY   76  59  55 W6        30.06F
DENISON *      SUNNY     75  59  57 CALM      30.06F
LE MARS *      MOSUNNY   77  59  53 VRB5      30.06F
ORANGE CITY *  SUNNY     77  55  47 SW7       30.06F
SHELDON *      MOSUNNY   77  61  57 W10       30.05S
SIOUX CITY     SUNNY     78  61  55 VRB3      30.05F HX  80
6HR MIN TEMP:  58; 6HR MAX TEMP:  79;

SPENCER        PTSUNNY   77  53  43 N6        30.05S
6HR MIN TEMP:  54; 6HR MAX TEMP:  78;

STORM LAKE *   SUNNY     75  59  57 NW6G14    30.07F
$$

IAZ055>058-069>071-079>083-090>094-091900-
   SOUTHWEST IOWA

CITY           SKY/WX    TMP DP  RH WIND       PRES   REMARKS
ATLANTIC *     SUNNY     77  57  50 SW7       30.07S
AUDUBON *      SUNNY     79  63  57 W3        30.09S HX  80
CLARINDA *     SUNNY     77  57  50 CALM      30.09F
COUNCIL BLFS * SUNNY     77  59  53 CALM      30.07F
CRESTON *      SUNNY     75  57  53 W8        30.09S
HARLAN  *      SUNNY     77  59  53 SW7       30.11F
LAMONI         SUNNY     77  54  44 NW3       30.08S
6HR MIN TEMP:  62; 6HR MAX TEMP:  78;

RED OAK *      SUNNY     77  59  53 VRB3      30.08F
SHENANDOAH *   SUNNY     79  59  50 VRB3      30.08F HX  80
$$

IAZ047>049-059>061-072>074-084-091900-
   CENTRAL IOWA

CITY           SKY/WX    TMP DP  RH WIND       PRES   REMARKS
AMES           SUNNY     76  55  48 VRB5      30.06S
6HR MIN TEMP:  57; 6HR MAX TEMP:  76;

ANKENY *       SUNNY     75  55  50 VRB6      30.06S
CHARITON *     SUNNY     75  54  46 VRB7      30.07S
DES MOINES     MOSUNNY   80  54  40 VRB3      30.05F HX  80
6HR MIN TEMP:  62; 6HR MAX TEMP:  80;

GRINNELL*      MOSUNNY   73  56  55 NW6       30.06F
KNOXVILLE *    SUNNY     73  52  46 VRB6G13   30.05F
MARSHALLTOWN   SUNNY     75  56  51 NW7       30.05S
6HR MIN TEMP:  57; 6HR MAX TEMP:  76;

PELLA *        SUNNY     76  54  45 N6        30.07S
PERRY *          N/A     75  57  53 W3        30.06F
$$

IAZ004>006-015-016-023>025-035-036-091900-
   NORTH CENTRAL IOWA

CITY           SKY/WX    TMP DP  RH WIND       PRES   REMARKS
ALGONA *       MOSUNNY   77  55  47 NW5G14    30.05S
CLARION *      SUNNY     75  54  46 W10       30.05S
ESTHERVILLE    MOSUNNY   77  52  41 NW13G21   30.04S HAZE
6HR MIN TEMP:  55; 6HR MAX TEMP:  77;

FORT DODGE *   SUNNY     75  57  53 W6        30.07S
MASON CITY     MOSUNNY   75  53  46 W13       30.05F
6HR MIN TEMP:  56; 6HR MAX TEMP:  76;

FOREST CITY *  MOSUNNY   73  55  53 W9        30.04S
IOWA FALLS *     N/A     75  54  46 W9        30.06F
$$

IAZ007>011-017>019-026>030-037>042-050>054-066-091900-
   NORTHEAST IOWA

CITY           SKY/WX    TMP DP  RH WIND       PRES   REMARKS
CEDAR RAPIDS   MOSUNNY   73  54  51 W8        30.03S
6HR MIN TEMP:  58; 6HR MAX TEMP:  75;

CHARLES CITY * MOSUNNY   73  55  53 NW6G15    30.04S
CLINTON *      MOSUNNY   73  55  53 NW8       30.04S
DECORAH *        N/A    N/A N/A N/A MISG        N/A
DUBUQUE        MOSUNNY   72  56  57 NW13      30.03R
6HR MIN TEMP:  60; 6HR MAX TEMP:  73;

MONTICELLO *   MOSUNNY   75  55  50 N10G17    30.02S
OELWEIN *      MOSUNNY   73  59  60 NW10      30.04S
WATERLOO       MOSUNNY   76  52  43 NW10      30.03S
6HR MIN TEMP:  57; 6HR MAX TEMP:  77;

$$

IAZ064-065-067-068-078-091900-
   EAST CENTRAL IOWA

CITY           SKY/WX    TMP DP  RH WIND       PRES   REMARKS
DAVENPORT      SUNNY     75  55  49 NW8       30.03R
6HR MIN TEMP:  61; 6HR MAX TEMP:  76;

IOWA CITY      MOSUNNY   75  55  49 NW7       30.05S
6HR MIN TEMP:  62; 6HR MAX TEMP:  75;

MT. PLEASANT * SUNNY     76  53  44 NW6       30.04F
MUSCATINE *    MOSUNNY   77  55  47 W8G16     30.03S
QUAD CITIES    SUNNY     77  54  44 NW10G16   30.01S
6HR MIN TEMP:  65; 6HR MAX TEMP:  78;

$$

IAZ062-063-075>077-085>089-095>099-091900-
   SOUTHEAST IOWA

CITY           SKY/WX    TMP DP  RH WIND       PRES   REMARKS
BURLINGTON     MOSUNNY   78  54  43 N9        30.03S
6HR MIN TEMP:  64; 6HR MAX TEMP:  79;

FAIRFIELD *    SUNNY     75  55  50 VRB5G13   30.05F
FORT MADISON * MOSUNNY   79  57  47 N5        30.05S HX  80
KEOKUK *       MOSUNNY   75  57  53 N10G16    30.03F
OSKALOOSA *      N/A     75  58  56 W6        30.06S
CENTERVILLE *  SUNNY     75  55  50 CALM      30.08S
OTTUMWA        MOSUNNY   75  57  53 NW7       30.06S
6HR MIN TEMP:  61; 6HR MAX TEMP:  75;

WASHINGTON *   MOSUNNY   75  57  53 N6G15     30.04F
$$

ABBREVIATIONS USED IN REMARKS
   TC - TEMPERATURES IN CELSIUS
  WCI - WIND CHILL INDEX
   HX - HEAT INDEX
  VSB - VISIBILITY
$$



USA.gov is the U.S. government's official web portal to all federal, state and local government web resources and services.